Regional Weather Roundup
Issued by NWS

Home | Current Version | Previous Version | Graphics & Text | Print | Product List | Glossary On
Versions: 1 2 3 4 5 6 7 8 9 10 11 12 13 14 15 16 17 18 19 20 21 22 23 24 25 26 27 28 29 30 31 32 33 34 35 36 37 38 39 40 41 42 43 44 45 46 47 48 49 50
000
ASUS43 KLSX 290459
RWRMO

WEATHER SUMMARY FOR MISSOURI
NATIONAL WEATHER SERVICE SPRINGFIELD MO
1200 AM CDT THU JUN 29 2017

NOTE: "FAIR" INDICATES FEW OR NO CLOUDS BELOW 12,000 FEET WITH NO
       SIGNIFICANT WEATHER AND/OR OBSTRUCTIONS TO VISIBILITY.
       CURRENT SKY AND/OR WEATHER CONDITIONS ARE NOT AVAILABLE FOR
       CHILLICOTHE AND FARMINGTON.

MOZ001>031-035>038-043-044-053-054-290600-
...NORTHERN AND WESTERN MISSOURI...

CITY           SKY/WX    TMP DP  RH WIND       PRES   REMARKS
KANSAS CTY INT PTCLDY    80  68  66 S18G29    29.77R
KANSAS C DTWN  CLEAR     82  68  62 S20G30    29.76S
LEE`S SUMMIT   CLEAR     80  67  64 S20G32    29.79S
ST JOSEPH      PTCLDY    81  70  69 S15G26    29.74R
CHILLICOTHE      N/A     68  67  96 VRB6      29.87R
KIRKSVILLE     TSTM      66  65  96 S13       29.91R

$$
MOZ066>068-077>081-088>096-101>105-290600-
...SOUTHWEST MISSOURI...

CITY           SKY/WX    TMP DP  RH WIND       PRES   REMARKS
SPRINGFIELD    CLEAR     74  65  73 S13       29.89F
JOPLIN         PTCLDY    78  68  71 S12       29.87S
BRANSON        PTCLDY    72  66  83 SE7       29.95S

$$
MOZ032>034-039>042-045>050-055>058-069>072-290600-
...CENTRAL MISSOURI...

CITY           SKY/WX    TMP DP  RH WIND       PRES   REMARKS
COLUMBIA       CLOUDY    77  65  66 S10       29.89R
JEFFERSON CITY CLOUDY    79  64  60 S7        29.88R
ROLLA          CLOUDY    74  64  71 S14G22    29.91R
SEDALIA        PTCLDY    76  68  76 S15       29.85S
WARRENSBURG    CLEAR     77  64  65 S15G22    29.81S
OSAGE BEACH    CLOUDY    74  64  71 S6        29.91R

$$
MOZ051-052-059>065-290600-
...EAST CENTRAL MISSOURI...

CITY           SKY/WX    TMP DP  RH WIND       PRES   REMARKS
ST LOUIS INTL  CLOUDY    80  64  58 S7        29.92R
SPIRIT OF STL  PTCLDY    78  66  66 S6        29.91R
ST CHARLES     MOCLDY    78  65  63 S9        29.90R

$$
MOZ072>076-082>087-097>100-106>115-290600-
...SOUTH CENTRAL AND SOUTHEAST MISSOURI...

CITY           SKY/WX    TMP DP  RH WIND       PRES   REMARKS
CAPE GIRARDEAU CLOUDY    74  64  71 S7        29.95S
FARMINGTON     CLOUDY    73  66  78 S8        29.96R
POPLAR BLUFF   PTCLDY    74  67  78 S5        29.94F
WEST PLAINS    CLEAR     74  65  73 S8        29.97S

$$




USA.gov is the U.S. government's official web portal to all federal, state and local government web resources and services.